Year,Month,Day,Hour,Minute,Value (Times are PST for temperature in C)
2020,05,05,00,00,10.30
2020,05,05,00,01,10.30
2020,05,05,00,02,10.30
2020,05,05,00,03,10.30
2020,05,05,00,04,10.30
2020,05,05,00,05,10.20
2020,05,05,00,06,10.20
2020,05,05,00,07,10.20
2020,05,05,00,08,10.20
2020,05,05,00,09,10.20
2020,05,05,00,10,10.10
2020,05,05,00,11,10.10
2020,05,05,00,12,10.10
2020,05,05,00,13,10.10
2020,05,05,00,14,10.10
2020,05,05,00,15,10.00
2020,05,05,00,16,10.00
2020,05,05,00,17,10.00
2020,05,05,00,18,10.00
2020,05,05,00,19,9.90
2020,05,05,00,20,9.90
2020,05,05,00,21,9.90
2020,05,05,00,22,9.90
2020,05,05,00,23,9.80
2020,05,05,00,24,9.80
2020,05,05,00,25,9.80
2020,05,05,00,26,9.80
2020,05,05,00,27,9.80
2020,05,05,00,28,9.80
2020,05,05,00,29,9.80
2020,05,05,00,30,9.80
2020,05,05,00,31,9.80
2020,05,05,00,32,9.80
2020,05,05,00,33,9.80
2020,05,05,00,34,9.80
2020,05,05,00,35,9.80
2020,05,05,00,36,9.80
2020,05,05,00,37,9.80
2020,05,05,00,38,9.80
2020,05,05,00,39,9.80
2020,05,05,00,40,9.80
2020,05,05,00,41,9.80
2020,05,05,00,42,9.80
2020,05,05,00,43,9.80
2020,05,05,00,44,9.80
2020,05,05,00,45,9.80
2020,05,05,00,46,9.80
2020,05,05,00,47,9.80
2020,05,05,00,48,9.80
2020,05,05,00,49,9.80
2020,05,05,00,50,9.70
2020,05,05,00,51,9.70
2020,05,05,00,52,9.70
2020,05,05,00,53,9.70
2020,05,05,00,54,9.70
2020,05,05,00,55,9.70
2020,05,05,00,56,9.60
2020,05,05,00,57,9.60
2020,05,05,00,58,9.60
2020,05,05,00,59,9.60
2020,05,05,01,00,9.60
2020,05,05,01,01,9.60
2020,05,05,01,02,9.60
2020,05,05,01,03,9.60
2020,05,05,01,04,9.60
2020,05,05,01,05,9.60
2020,05,05,01,06,9.60
2020,05,05,01,07,9.60
2020,05,05,01,08,9.60
2020,05,05,01,09,9.60
2020,05,05,01,10,9.60
2020,05,05,01,11,9.50
2020,05,05,01,12,9.50
2020,05,05,01,13,9.50
2020,05,05,01,14,9.50
2020,05,05,01,15,9.50
2020,05,05,01,16,9.40
2020,05,05,01,17,9.40
2020,05,05,01,18,9.40
2020,05,05,01,19,9.40
2020,05,05,01,20,9.40
2020,05,05,01,21,9.40
2020,05,05,01,22,9.40
2020,05,05,01,23,9.40
2020,05,05,01,24,9.30
2020,05,05,01,25,9.30
2020,05,05,01,26,9.30
2020,05,05,01,27,9.30
2020,05,05,01,28,9.30
2020,05,05,01,29,9.30
2020,05,05,01,30,9.30
2020,05,05,01,31,9.30
2020,05,05,01,32,9.30
2020,05,05,01,33,9.30
2020,05,05,01,34,9.20
2020,05,05,01,35,9.20
2020,05,05,01,36,9.20
2020,05,05,01,37,9.20
2020,05,05,01,38,9.20
2020,05,05,01,39,9.20
2020,05,05,01,40,9.20
2020,05,05,01,41,9.20
2020,05,05,01,42,9.20
2020,05,05,01,43,9.20
2020,05,05,01,44,9.10
2020,05,05,01,45,9.10
2020,05,05,01,46,9.10
2020,05,05,01,47,9.10
2020,05,05,01,48,9.10
2020,05,05,01,49,9.10
2020,05,05,01,50,9.10
2020,05,05,01,51,9.10
2020,05,05,01,52,9.10
2020,05,05,01,53,9.00
2020,05,05,01,54,9.00
2020,05,05,01,55,9.00
2020,05,05,01,56,9.00
2020,05,05,01,57,8.90
2020,05,05,01,58,8.90
2020,05,05,01,59,8.90
2020,05,05,02,00,8.90
2020,05,05,02,01,8.90
2020,05,05,02,02,8.90
2020,05,05,02,03,8.80
2020,05,05,02,04,8.80
2020,05,05,02,05,8.80
2020,05,05,02,06,8.80
2020,05,05,02,07,8.80
2020,05,05,02,08,8.80
2020,05,05,02,09,8.80
2020,05,05,02,10,8.80
2020,05,05,02,11,8.80
2020,05,05,02,12,8.80
2020,05,05,02,13,8.80
2020,05,05,02,14,8.80
2020,05,05,02,15,8.80
2020,05,05,02,16,8.70
2020,05,05,02,17,8.80
2020,05,05,02,18,8.70
2020,05,05,02,19,8.70
2020,05,05,02,20,8.70
2020,05,05,02,21,8.70
2020,05,05,02,22,8.70
2020,05,05,02,23,8.70
2020,05,05,02,24,8.70
2020,05,05,02,25,8.70
2020,05,05,02,26,8.70
2020,05,05,02,27,8.60
2020,05,05,02,28,8.60
2020,05,05,02,29,8.60
2020,05,05,02,30,8.60
2020,05,05,02,31,8.60
2020,05,05,02,32,8.60
2020,05,05,02,33,8.60
2020,05,05,02,34,8.50
2020,05,05,02,35,8.50
2020,05,05,02,36,8.40
2020,05,05,02,37,8.40
2020,05,05,02,38,8.40
2020,05,05,02,39,8.40
2020,05,05,02,40,8.40
2020,05,05,02,41,8.40
2020,05,05,02,42,8.40
2020,05,05,02,43,8.40
2020,05,05,02,44,8.40
2020,05,05,02,45,8.30
2020,05,05,02,46,8.30
2020,05,05,02,47,8.30
2020,05,05,02,48,8.30
2020,05,05,02,49,8.30
2020,05,05,02,50,8.30
2020,05,05,02,51,8.30
2020,05,05,02,52,8.30
2020,05,05,02,53,8.30
2020,05,05,02,54,8.20
2020,05,05,02,55,8.20
2020,05,05,02,56,8.20
2020,05,05,02,57,8.20
2020,05,05,02,58,8.20
2020,05,05,02,59,8.20
2020,05,05,03,00,8.10
2020,05,05,03,01,8.10
2020,05,05,03,02,8.10
2020,05,05,03,03,8.10
2020,05,05,03,04,8.10
2020,05,05,03,05,8.10
2020,05,05,03,06,8.10
2020,05,05,03,07,8.10
2020,05,05,03,08,8.10
2020,05,05,03,09,8.10
2020,05,05,03,10,8.10
2020,05,05,03,11,8.10
2020,05,05,03,12,8.10
2020,05,05,03,13,8.10
2020,05,05,03,14,8.10
2020,05,05,03,15,8.10
2020,05,05,03,16,8.10
2020,05,05,03,17,8.10
2020,05,05,03,18,8.10
2020,05,05,03,19,8.10
2020,05,05,03,20,8.10
2020,05,05,03,21,8.10
2020,05,05,03,22,8.10
2020,05,05,03,23,8.10
2020,05,05,03,24,8.10
2020,05,05,03,25,8.10
2020,05,05,03,26,8.10
2020,05,05,03,27,8.10
2020,05,05,03,28,8.10
2020,05,05,03,29,8.10
2020,05,05,03,30,8.10
2020,05,05,03,31,8.10
2020,05,05,03,32,8.10
2020,05,05,03,33,8.10
2020,05,05,03,34,8.10
2020,05,05,03,35,8.10
2020,05,05,03,36,8.10
2020,05,05,03,37,8.10
2020,05,05,03,38,8.20
2020,05,05,03,39,8.20
2020,05,05,03,40,8.20
2020,05,05,03,41,8.30
2020,05,05,03,42,8.30
2020,05,05,03,43,8.30
2020,05,05,03,44,8.30
2020,05,05,03,45,8.30
2020,05,05,03,46,8.30
2020,05,05,03,47,8.30
2020,05,05,03,48,8.30
2020,05,05,03,49,8.30
2020,05,05,03,50,8.30
2020,05,05,03,51,8.30
2020,05,05,03,52,8.30
2020,05,05,03,53,8.30
2020,05,05,03,54,8.30
2020,05,05,03,55,8.20
2020,05,05,03,56,8.20
2020,05,05,03,57,8.20
2020,05,05,03,58,8.20
2020,05,05,03,59,8.20
2020,05,05,04,00,8.20
2020,05,05,04,01,8.20
2020,05,05,04,02,8.20
2020,05,05,04,03,8.20
2020,05,05,04,04,8.20
2020,05,05,04,05,8.20
2020,05,05,04,06,8.30
2020,05,05,04,07,8.30
2020,05,05,04,08,8.30
2020,05,05,04,09,8.30
2020,05,05,04,10,8.30
2020,05,05,04,11,8.30
2020,05,05,04,12,8.30
2020,05,05,04,13,8.30
2020,05,05,04,14,8.30
2020,05,05,04,15,8.30
2020,05,05,04,16,8.30
2020,05,05,04,17,8.30
2020,05,05,04,18,8.30
2020,05,05,04,19,8.30
2020,05,05,04,20,8.30
2020,05,05,04,21,8.30
2020,05,05,04,22,8.30
2020,05,05,04,23,8.30
2020,05,05,04,24,8.30
2020,05,05,04,25,8.30
2020,05,05,04,26,8.30
2020,05,05,04,27,8.30
2020,05,05,04,28,8.30
2020,05,05,04,29,8.20
2020,05,05,04,30,8.20
2020,05,05,04,31,8.20
2020,05,05,04,32,8.20
2020,05,05,04,33,8.20
2020,05,05,04,34,8.20
2020,05,05,04,35,8.10
2020,05,05,04,36,8.10
2020,05,05,04,37,8.10
2020,05,05,04,38,8.10
2020,05,05,04,39,8.10
2020,05,05,04,40,8.10
2020,05,05,04,41,8.10
2020,05,05,04,42,8.10
2020,05,05,04,43,8.10
2020,05,05,04,44,8.10
2020,05,05,04,45,8.10
2020,05,05,04,46,8.10
2020,05,05,04,47,8.10
2020,05,05,04,48,8.10
2020,05,05,04,49,8.10
2020,05,05,04,50,8.10
2020,05,05,04,51,8.10
2020,05,05,04,52,8.10
2020,05,05,04,53,8.10
2020,05,05,04,54,8.10
2020,05,05,04,55,8.00
2020,05,05,04,56,8.00
2020,05,05,04,57,7.90
2020,05,05,04,58,7.90
2020,05,05,04,59,7.90
2020,05,05,05,00,7.90
2020,05,05,05,01,7.90
2020,05,05,05,02,7.80
2020,05,05,05,03,7.80
2020,05,05,05,04,7.80
2020,05,05,05,05,7.80
2020,05,05,05,06,7.80
2020,05,05,05,07,7.80
2020,05,05,05,08,7.70
2020,05,05,05,09,7.70
2020,05,05,05,10,7.70
2020,05,05,05,11,7.70
2020,05,05,05,12,7.70
2020,05,05,05,13,7.70
2020,05,05,05,14,7.70
2020,05,05,05,15,7.70
2020,05,05,05,16,7.70
2020,05,05,05,17,7.70
2020,05,05,05,18,7.70
2020,05,05,05,19,7.70
2020,05,05,05,20,7.70
2020,05,05,05,21,7.70
2020,05,05,05,22,7.70
2020,05,05,05,23,7.60
2020,05,05,05,24,7.60
2020,05,05,05,25,7.60
2020,05,05,05,26,7.60
2020,05,05,05,27,7.50
2020,05,05,05,28,7.50
2020,05,05,05,29,7.50
2020,05,05,05,30,7.40
2020,05,05,05,31,7.40
2020,05,05,05,32,7.40
2020,05,05,05,33,7.30
2020,05,05,05,34,7.30
2020,05,05,05,35,7.30
2020,05,05,05,36,7.30
2020,05,05,05,37,7.30
2020,05,05,05,38,7.30
2020,05,05,05,39,7.30
2020,05,05,05,40,7.30
2020,05,05,05,41,7.30
2020,05,05,05,42,7.20
2020,05,05,05,43,7.20
2020,05,05,05,44,7.20
2020,05,05,05,45,7.20
2020,05,05,05,46,7.10
2020,05,05,05,47,7.10
2020,05,05,05,48,7.10
2020,05,05,05,49,7.00
2020,05,05,05,50,7.00
2020,05,05,05,51,6.90
2020,05,05,05,52,6.90
2020,05,05,05,53,6.90
2020,05,05,05,54,6.90
2020,05,05,05,55,6.90
2020,05,05,05,56,6.90
2020,05,05,05,57,6.90
2020,05,05,05,58,6.90
2020,05,05,05,59,6.90
2020,05,05,06,00,6.90
2020,05,05,06,01,6.90
2020,05,05,06,02,6.90
2020,05,05,06,03,6.90
2020,05,05,06,04,6.90
2020,05,05,06,05,6.90
2020,05,05,06,06,6.90
2020,05,05,06,07,6.90
2020,05,05,06,08,6.90
2020,05,05,06,09,6.90
2020,05,05,06,10,6.90
2020,05,05,06,11,6.90
2020,05,05,06,12,6.90
2020,05,05,06,13,6.90
2020,05,05,06,14,6.90
2020,05,05,06,15,7.00
2020,05,05,06,16,7.00
2020,05,05,06,17,7.00
2020,05,05,06,18,7.00
2020,05,05,06,19,7.00
2020,05,05,06,20,7.00
2020,05,05,06,21,7.00
2020,05,05,06,22,7.00
2020,05,05,06,23,7.00
2020,05,05,06,24,7.00
2020,05,05,06,25,7.10
2020,05,05,06,26,7.10
2020,05,05,06,27,7.10
2020,05,05,06,28,7.20
2020,05,05,06,29,7.20
2020,05,05,06,30,7.30
2020,05,05,06,31,7.30
2020,05,05,06,32,7.40
2020,05,05,06,33,7.50
2020,05,05,06,34,7.50
2020,05,05,06,35,7.60
2020,05,05,06,36,7.70
2020,05,05,06,37,7.70
2020,05,05,06,38,7.80
2020,05,05,06,39,7.80
2020,05,05,06,40,7.90
2020,05,05,06,41,7.90
2020,05,05,06,42,7.90
2020,05,05,06,43,8.00
2020,05,05,06,44,8.00
2020,05,05,06,45,8.00
2020,05,05,06,46,8.10
2020,05,05,06,47,8.10
2020,05,05,06,48,8.10
2020,05,05,06,49,8.10
2020,05,05,06,50,8.10
2020,05,05,06,51,8.10
2020,05,05,06,52,8.10
2020,05,05,06,53,8.10
2020,05,05,06,54,8.10
2020,05,05,06,55,8.10
2020,05,05,06,56,8.10
2020,05,05,06,57,8.10
2020,05,05,06,58,8.10
2020,05,05,06,59,8.10
2020,05,05,07,00,8.10
2020,05,05,07,01,8.10
2020,05,05,07,02,8.10
2020,05,05,07,03,8.20
2020,05,05,07,04,8.20
2020,05,05,07,05,8.20
2020,05,05,07,06,8.20
2020,05,05,07,07,8.30
2020,05,05,07,08,8.30
2020,05,05,07,09,8.30
2020,05,05,07,10,8.40
2020,05,05,07,11,8.40
2020,05,05,07,12,8.40
2020,05,05,07,13,8.40
2020,05,05,07,14,8.50
2020,05,05,07,15,8.50
2020,05,05,07,16,8.50
2020,05,05,07,17,8.50
2020,05,05,07,18,8.60
2020,05,05,07,19,8.60
2020,05,05,07,20,8.60
2020,05,05,07,21,8.60
2020,05,05,07,22,8.60
2020,05,05,07,23,8.60
2020,05,05,07,24,8.60
2020,05,05,07,25,8.70
2020,05,05,07,26,8.70
2020,05,05,07,27,8.70
2020,05,05,07,28,8.70
2020,05,05,07,29,8.70
2020,05,05,07,30,8.70
2020,05,05,07,31,8.70
2020,05,05,07,32,8.80
2020,05,05,07,33,8.80
2020,05,05,07,34,8.80
2020,05,05,07,35,8.80
2020,05,05,07,36,8.80
2020,05,05,07,37,8.80
2020,05,05,07,38,8.90
2020,05,05,07,39,8.90
2020,05,05,07,40,8.90
2020,05,05,07,41,8.90
2020,05,05,07,42,9.00
2020,05,05,07,43,9.00
2020,05,05,07,44,9.00
2020,05,05,07,45,9.10
2020,05,05,07,46,9.10
2020,05,05,07,47,9.20
2020,05,05,07,48,9.20
2020,05,05,07,49,9.20
2020,05,05,07,50,9.30
2020,05,05,07,51,9.30
2020,05,05,07,52,9.30
2020,05,05,07,53,9.40
2020,05,05,07,54,9.40
2020,05,05,07,55,9.40
2020,05,05,07,56,9.50
2020,05,05,07,57,9.50
2020,05,05,07,58,9.50
2020,05,05,07,59,9.60
2020,05,05,08,00,9.60
2020,05,05,08,01,9.60
2020,05,05,08,02,9.70
2020,05,05,08,03,9.70
2020,05,05,08,04,9.80
2020,05,05,08,05,9.80
2020,05,05,08,06,9.80
2020,05,05,08,07,9.90
2020,05,05,08,08,9.90
2020,05,05,08,09,10.00
2020,05,05,08,10,10.00
2020,05,05,08,11,10.10
2020,05,05,08,12,10.10
2020,05,05,08,13,10.20
2020,05,05,08,14,10.20
2020,05,05,08,15,10.20
2020,05,05,08,16,10.30
2020,05,05,08,17,10.30
2020,05,05,08,18,10.40
2020,05,05,08,19,10.40
2020,05,05,08,20,10.50
2020,05,05,08,21,10.50
2020,05,05,08,22,10.60
2020,05,05,08,23,10.60
2020,05,05,08,24,10.60
2020,05,05,08,25,10.70
2020,05,05,08,26,10.70
2020,05,05,08,27,10.70
2020,05,05,08,28,10.70
2020,05,05,08,29,10.80
2020,05,05,08,30,10.80
2020,05,05,08,31,10.80
2020,05,05,08,32,10.90
2020,05,05,08,33,10.90
2020,05,05,08,34,10.90
2020,05,05,08,35,10.90
2020,05,05,08,36,10.90
2020,05,05,08,37,10.90
2020,05,05,08,38,10.90
2020,05,05,08,39,11.00
2020,05,05,08,40,11.00
2020,05,05,08,41,11.00
2020,05,05,08,42,11.10
2020,05,05,08,43,11.10
2020,05,05,08,44,11.10
2020,05,05,08,45,11.10
2020,05,05,08,46,11.10
2020,05,05,08,47,11.10
2020,05,05,08,48,11.10
2020,05,05,08,49,11.10
2020,05,05,08,50,11.10
2020,05,05,08,51,11.10
2020,05,05,08,52,11.10
2020,05,05,08,53,11.10
2020,05,05,08,54,11.10
2020,05,05,08,55,11.10
2020,05,05,08,56,11.20
2020,05,05,08,57,11.20
2020,05,05,08,58,11.20
2020,05,05,08,59,11.20
2020,05,05,09,00,11.20
2020,05,05,09,01,11.20
2020,05,05,09,02,11.20
2020,05,05,09,03,11.10
2020,05,05,09,04,11.10
2020,05,05,09,05,11.10
2020,05,05,09,06,11.10
2020,05,05,09,07,11.10
2020,05,05,09,08,11.10
2020,05,05,09,09,11.10
2020,05,05,09,10,11.10
2020,05,05,09,11,11.10
2020,05,05,09,12,11.10
2020,05,05,09,13,11.10
2020,05,05,09,14,11.10
2020,05,05,09,15,11.10
2020,05,05,09,16,11.10
2020,05,05,09,17,11.10
2020,05,05,09,18,11.10
2020,05,05,09,19,11.10
2020,05,05,09,20,11.20
2020,05,05,09,21,11.20
2020,05,05,09,22,11.20
2020,05,05,09,23,11.30
2020,05,05,09,24,11.30
2020,05,05,09,25,11.30
2020,05,05,09,26,11.40
2020,05,05,09,27,11.40
2020,05,05,09,28,11.40
2020,05,05,09,29,11.50
2020,05,05,09,30,11.50
2020,05,05,09,31,11.50
2020,05,05,09,32,11.50
2020,05,05,09,33,11.50
2020,05,05,09,34,11.50
2020,05,05,09,35,11.50
2020,05,05,09,36,11.50
2020,05,05,09,37,11.50
2020,05,05,09,38,11.50
2020,05,05,09,39,11.50
2020,05,05,09,40,11.50
2020,05,05,09,41,11.50
2020,05,05,09,42,11.50
2020,05,05,09,43,11.50
2020,05,05,09,44,11.50
2020,05,05,09,45,11.50
2020,05,05,09,46,11.60
2020,05,05,09,47,11.60
2020,05,05,09,48,11.60
2020,05,05,09,49,11.60
2020,05,05,09,50,11.60
2020,05,05,09,51,11.60
2020,05,05,09,52,11.60
2020,05,05,09,53,11.60
2020,05,05,09,54,11.60
2020,05,05,09,55,11.60
2020,05,05,09,56,11.60
2020,05,05,09,57,11.60
2020,05,05,09,58,11.60
2020,05,05,09,59,11.60
2020,05,05,10,00,11.60
2020,05,05,10,01,11.60
2020,05,05,10,02,11.60
2020,05,05,10,03,11.60
2020,05,05,10,04,11.60
2020,05,05,10,05,11.60
2020,05,05,10,06,11.70
2020,05,05,10,07,11.70
2020,05,05,10,08,11.70
2020,05,05,10,09,11.70
2020,05,05,10,10,11.80
2020,05,05,10,11,11.80
2020,05,05,10,12,11.80
2020,05,05,10,13,11.80
2020,05,05,10,14,11.90
2020,05,05,10,15,11.90
2020,05,05,10,16,11.90
2020,05,05,10,17,11.90
2020,05,05,10,18,11.90
2020,05,05,10,19,11.90
2020,05,05,10,20,11.90
2020,05,05,10,21,12.00
2020,05,05,10,22,12.00
2020,05,05,10,23,12.00
2020,05,05,10,24,12.00
2020,05,05,10,25,12.00
2020,05,05,10,26,12.10
2020,05,05,10,27,12.10
2020,05,05,10,28,12.10
2020,05,05,10,29,12.10
2020,05,05,10,30,12.10
2020,05,05,10,31,12.20
2020,05,05,10,32,12.20
2020,05,05,10,33,12.20
2020,05,05,10,34,12.20
2020,05,05,10,35,12.20
2020,05,05,10,36,12.20
2020,05,05,10,37,12.20
2020,05,05,10,38,12.20
2020,05,05,10,39,12.20
2020,05,05,10,40,12.20
2020,05,05,10,41,12.20
2020,05,05,10,42,12.20
2020,05,05,10,43,12.10
2020,05,05,10,44,12.10
2020,05,05,10,45,12.10
2020,05,05,10,46,12.10
2020,05,05,10,47,12.10
2020,05,05,10,48,12.10
2020,05,05,10,49,12.10
2020,05,05,10,50,12.10
2020,05,05,10,51,12.00
2020,05,05,10,52,12.00
2020,05,05,10,53,12.10
2020,05,05,10,54,12.00
2020,05,05,10,55,12.00
2020,05,05,10,56,12.00
2020,05,05,10,57,12.00
2020,05,05,10,58,12.10
2020,05,05,10,59,12.10
2020,05,05,11,00,12.10
2020,05,05,11,01,12.20
2020,05,05,11,02,12.20
2020,05,05,11,03,12.20
2020,05,05,11,04,12.20
2020,05,05,11,05,12.30
2020,05,05,11,06,12.30
2020,05,05,11,07,12.30
2020,05,05,11,08,12.40
2020,05,05,11,09,12.40
2020,05,05,11,10,12.40
2020,05,05,11,11,12.40
2020,05,05,11,12,12.40
2020,05,05,11,13,12.50
2020,05,05,11,14,12.50
2020,05,05,11,15,12.60
2020,05,05,11,16,12.60
2020,05,05,11,17,12.60
2020,05,05,11,18,12.60
2020,05,05,11,19,12.70
2020,05,05,11,20,12.70
2020,05,05,11,21,12.70
2020,05,05,11,22,12.70
2020,05,05,11,23,12.70
2020,05,05,11,24,12.70
2020,05,05,11,25,12.70
2020,05,05,11,26,12.70
2020,05,05,11,27,12.80
2020,05,05,11,28,12.80
2020,05,05,11,29,12.80
2020,05,05,11,30,12.80
2020,05,05,11,31,12.80
2020,05,05,11,32,12.80
2020,05,05,11,33,12.80
2020,05,05,11,34,12.70
2020,05,05,11,35,12.70
2020,05,05,11,36,12.70
2020,05,05,11,37,12.70
2020,05,05,11,38,12.70
2020,05,05,11,39,12.70
2020,05,05,11,40,12.70
2020,05,05,11,41,12.70
2020,05,05,11,42,12.70
2020,05,05,11,43,12.70
2020,05,05,11,44,12.70
2020,05,05,11,45,12.70
2020,05,05,11,46,12.70
2020,05,05,11,47,12.70
2020,05,05,11,48,12.70
2020,05,05,11,49,12.70
2020,05,05,11,50,12.80
2020,05,05,11,51,12.80
2020,05,05,11,52,12.80
2020,05,05,11,53,12.80
2020,05,05,11,54,12.80
2020,05,05,11,55,12.80
2020,05,05,11,56,12.80
2020,05,05,11,57,12.80
2020,05,05,11,58,12.90
2020,05,05,11,59,12.90
2020,05,05,12,00,13.00
2020,05,05,12,01,13.10
2020,05,05,12,02,13.10
2020,05,05,12,03,13.20
2020,05,05,12,04,13.20
2020,05,05,12,05,13.30
2020,05,05,12,06,13.30
2020,05,05,12,07,13.30
2020,05,05,12,08,13.30
2020,05,05,12,09,13.40
2020,05,05,12,10,13.40
2020,05,05,12,11,13.40
2020,05,05,12,12,13.40
2020,05,05,12,13,13.50
2020,05,05,12,14,13.50
2020,05,05,12,15,13.50
2020,05,05,12,16,13.50
2020,05,05,12,17,13.50
2020,05,05,12,18,13.60
2020,05,05,12,19,13.60
2020,05,05,12,20,13.60
2020,05,05,12,21,13.60
2020,05,05,12,22,13.60
2020,05,05,12,23,13.70
2020,05,05,12,24,13.70
2020,05,05,12,25,13.70
2020,05,05,12,26,13.70
2020,05,05,12,27,13.80
2020,05,05,12,28,13.80
2020,05,05,12,29,13.80
2020,05,05,12,30,13.80
2020,05,05,12,31,13.80
2020,05,05,12,32,13.80
2020,05,05,12,33,13.80
2020,05,05,12,34,13.80
2020,05,05,12,35,13.80
2020,05,05,12,36,13.80
2020,05,05,12,37,13.80
2020,05,05,12,38,13.80
2020,05,05,12,39,13.80
2020,05,05,12,40,13.80
2020,05,05,12,41,13.80
2020,05,05,12,42,13.90
2020,05,05,12,43,13.90
2020,05,05,12,44,13.90
2020,05,05,12,45,13.90
2020,05,05,12,46,14.00
2020,05,05,12,47,14.00
2020,05,05,12,48,14.10
2020,05,05,12,49,14.10
2020,05,05,12,50,14.10
2020,05,05,12,51,14.20
2020,05,05,12,52,14.20
2020,05,05,12,53,14.20
2020,05,05,12,54,14.20
2020,05,05,12,55,14.30
2020,05,05,12,56,14.30
2020,05,05,12,57,14.30
2020,05,05,12,58,14.30
2020,05,05,12,59,14.40
2020,05,05,13,00,14.40
2020,05,05,13,01,14.40
2020,05,05,13,02,14.40
2020,05,05,13,03,14.50
2020,05,05,13,04,14.50
2020,05,05,13,05,14.50
2020,05,05,13,06,14.50
2020,05,05,13,07,14.50
2020,05,05,13,08,14.50
2020,05,05,13,09,14.50
2020,05,05,13,10,14.50
2020,05,05,13,11,14.50
2020,05,05,13,12,14.50
2020,05,05,13,13,14.50
2020,05,05,13,14,14.40
2020,05,05,13,15,14.40
2020,05,05,13,16,14.40
2020,05,05,13,17,14.40
2020,05,05,13,18,14.40
2020,05,05,13,19,14.40
2020,05,05,13,20,14.50
2020,05,05,13,21,14.50
2020,05,05,13,22,14.50
2020,05,05,13,23,14.50
2020,05,05,13,24,14.50
2020,05,05,13,25,14.50
2020,05,05,13,26,14.50
2020,05,05,13,27,14.50
2020,05,05,13,28,14.60
2020,05,05,13,29,14.60
2020,05,05,13,30,14.60
2020,05,05,13,31,14.70
2020,05,05,13,32,14.70
2020,05,05,13,33,14.70
2020,05,05,13,34,14.70
2020,05,05,13,35,14.80
2020,05,05,13,36,14.80
2020,05,05,13,37,14.80
2020,05,05,13,38,14.80
2020,05,05,13,39,14.80
2020,05,05,13,40,14.90
2020,05,05,13,41,14.90
2020,05,05,13,42,14.90
2020,05,05,13,43,14.90
2020,05,05,13,44,15.00
2020,05,05,13,45,15.00
2020,05,05,13,46,15.10
2020,05,05,13,47,15.10
2020,05,05,13,48,15.10
2020,05,05,13,49,15.10
2020,05,05,13,50,15.10
2020,05,05,13,51,15.10
2020,05,05,13,52,15.20
2020,05,05,13,53,15.20
2020,05,05,13,54,15.10
2020,05,05,13,55,15.10
2020,05,05,13,56,15.10
2020,05,05,13,57,15.10
2020,05,05,13,58,15.10
2020,05,05,13,59,15.10
2020,05,05,14,00,15.10
2020,05,05,14,01,15.00
2020,05,05,14,02,15.00
2020,05,05,14,03,15.00
2020,05,05,14,04,15.00
2020,05,05,14,05,15.00
2020,05,05,14,06,14.90
2020,05,05,14,07,14.90
2020,05,05,14,08,15.00
2020,05,05,14,09,15.00
2020,05,05,14,10,15.10
2020,05,05,14,11,15.10
2020,05,05,14,12,15.10
2020,05,05,14,13,15.20
2020,05,05,14,14,15.20
2020,05,05,14,15,15.20
2020,05,05,14,16,15.20
2020,05,05,14,17,15.30
2020,05,05,14,18,15.30
2020,05,05,14,19,15.30
2020,05,05,14,20,15.30
2020,05,05,14,21,15.40
2020,05,05,14,22,15.40
2020,05,05,14,23,15.40
2020,05,05,14,24,15.40
2020,05,05,14,25,15.40
2020,05,05,14,26,15.40
2020,05,05,14,27,15.40
2020,05,05,14,28,15.40
2020,05,05,14,29,15.50
2020,05,05,14,30,15.50
2020,05,05,14,31,15.60
2020,05,05,14,32,15.60
2020,05,05,14,33,15.60
2020,05,05,14,34,15.70
2020,05,05,14,35,15.70
2020,05,05,14,36,15.70
2020,05,05,14,37,15.70
2020,05,05,14,38,15.70
2020,05,05,14,39,15.70
2020,05,05,14,40,15.70
2020,05,05,14,41,15.70
2020,05,05,14,42,15.70
2020,05,05,14,43,15.70
2020,05,05,14,44,15.70
2020,05,05,14,45,15.70
2020,05,05,14,46,15.70
2020,05,05,14,47,15.70
2020,05,05,14,48,15.70
2020,05,05,14,49,15.70
2020,05,05,14,50,15.70
2020,05,05,14,51,15.70
2020,05,05,14,52,15.70
2020,05,05,14,53,15.70
2020,05,05,14,54,15.70
2020,05,05,14,55,15.70
2020,05,05,14,56,15.70
2020,05,05,14,57,15.60
2020,05,05,14,58,15.60
2020,05,05,14,59,15.60
2020,05,05,15,00,15.60
2020,05,05,15,01,15.60
2020,05,05,15,02,15.60
2020,05,05,15,03,15.60
2020,05,05,15,04,15.60
2020,05,05,15,05,15.60
2020,05,05,15,06,15.70
2020,05,05,15,07,15.70
2020,05,05,15,08,15.70
2020,05,05,15,09,15.70
2020,05,05,15,10,15.70
2020,05,05,15,11,15.70
2020,05,05,15,12,15.70
2020,05,05,15,13,15.80
2020,05,05,15,14,15.80
2020,05,05,15,15,15.80
2020,05,05,15,16,15.80
2020,05,05,15,17,15.80
2020,05,05,15,18,15.90
2020,05,05,15,19,15.90
2020,05,05,15,20,15.90
2020,05,05,15,21,15.90
2020,05,05,15,22,15.90
2020,05,05,15,23,15.90
2020,05,05,15,24,15.90
2020,05,05,15,25,15.90
2020,05,05,15,26,16.00
2020,05,05,15,27,16.00
2020,05,05,15,28,16.00
2020,05,05,15,29,16.10
2020,05,05,15,30,16.10
2020,05,05,15,31,16.10
2020,05,05,15,32,16.20
2020,05,05,15,33,16.20
2020,05,05,15,34,16.20
2020,05,05,15,35,16.20
2020,05,05,15,36,16.20
2020,05,05,15,37,16.20
2020,05,05,15,38,16.20
2020,05,05,15,39,16.30
2020,05,05,15,40,16.30
2020,05,05,15,41,16.30
2020,05,05,15,42,16.30
2020,05,05,15,43,16.40
2020,05,05,15,44,16.40
2020,05,05,15,45,16.40
2020,05,05,15,46,16.40
2020,05,05,15,47,16.40
2020,05,05,15,48,16.40
2020,05,05,15,49,16.50
2020,05,05,15,50,16.50
2020,05,05,15,51,16.60
2020,05,05,15,52,16.60
2020,05,05,15,53,16.70
2020,05,05,15,54,16.70
2020,05,05,15,55,16.70
2020,05,05,15,56,16.80
2020,05,05,15,57,16.80
2020,05,05,15,58,16.80
2020,05,05,15,59,16.80
2020,05,05,16,00,16.80
2020,05,05,16,01,16.80
2020,05,05,16,02,16.80
2020,05,05,16,03,16.80
2020,05,05,16,04,16.80
2020,05,05,16,05,16.70
2020,05,05,16,06,16.70
2020,05,05,16,07,16.70
2020,05,05,16,08,16.80
2020,05,05,16,09,16.80
2020,05,05,16,10,16.80
2020,05,05,16,11,16.80
2020,05,05,16,12,16.80
2020,05,05,16,13,16.80
2020,05,05,16,14,16.80
2020,05,05,16,15,16.80
2020,05,05,16,16,16.80
2020,05,05,16,17,16.80
2020,05,05,16,18,16.80
2020,05,05,16,19,16.90
2020,05,05,16,20,16.90
2020,05,05,16,21,16.90
2020,05,05,16,22,17.00
2020,05,05,16,23,17.00
2020,05,05,16,24,17.00
2020,05,05,16,25,17.10
2020,05,05,16,26,17.10
2020,05,05,16,27,17.10
2020,05,05,16,28,17.10
2020,05,05,16,29,17.10
2020,05,05,16,30,17.10
2020,05,05,16,31,17.10
2020,05,05,16,32,17.10
2020,05,05,16,33,17.10
2020,05,05,16,34,17.10
2020,05,05,16,35,17.20
2020,05,05,16,36,17.20
2020,05,05,16,37,17.20
2020,05,05,16,38,17.30
2020,05,05,16,39,17.30
2020,05,05,16,40,17.30
2020,05,05,16,41,17.30
2020,05,05,16,42,17.40
2020,05,05,16,43,17.40
2020,05,05,16,44,17.40
2020,05,05,16,45,17.40
2020,05,05,16,46,17.30
2020,05,05,16,47,17.30
2020,05,05,16,48,17.30
2020,05,05,16,49,17.30
2020,05,05,16,50,17.30
2020,05,05,16,51,17.30
2020,05,05,16,52,17.30
2020,05,05,16,53,17.30
2020,05,05,16,54,17.30
2020,05,05,16,55,17.30
2020,05,05,16,56,17.30
2020,05,05,16,57,17.30
2020,05,05,16,58,17.30
2020,05,05,16,59,17.30
2020,05,05,17,00,17.30
2020,05,05,17,01,17.30
2020,05,05,17,02,17.30
2020,05,05,17,03,17.30
2020,05,05,17,04,17.30
2020,05,05,17,05,17.30
2020,05,05,17,06,17.30
2020,05,05,17,07,17.30
2020,05,05,17,08,17.30
2020,05,05,17,09,17.30
2020,05,05,17,10,17.20
2020,05,05,17,11,17.20
2020,05,05,17,12,17.20
2020,05,05,17,13,17.20
2020,05,05,17,14,17.20
2020,05,05,17,15,17.20
2020,05,05,17,16,17.20
2020,05,05,17,17,17.20
2020,05,05,17,18,17.20
2020,05,05,17,19,17.20
2020,05,05,17,20,17.20
2020,05,05,17,21,17.20
2020,05,05,17,22,17.20
2020,05,05,17,23,17.30
2020,05,05,17,24,17.30
2020,05,05,17,25,17.30
2020,05,05,17,26,17.40
2020,05,05,17,27,17.40
2020,05,05,17,28,17.50
2020,05,05,17,29,17.50
2020,05,05,17,30,17.60
2020,05,05,17,31,17.60
2020,05,05,17,32,17.60
2020,05,05,17,33,17.60
2020,05,05,17,34,17.60
2020,05,05,17,35,17.60
2020,05,05,17,36,17.60
2020,05,05,17,37,17.60
2020,05,05,17,38,17.70
2020,05,05,17,39,17.70